Flag for Japan Weather past 2 weeks in Minamisōma, Japan

Now
55 °F

Passing clouds.


Feels Like: 54 °F
Forecast: 44 / 69 °F
Wind: 7 mph from Southwest

Location: Sendai Airport


UV Index: 7 (High)

Visibility: N/A


Pressure: 30.21 "Hg

Humidity: 51%

Dew point: 37 °F

Location of MinamisōmaLocation

Historic Weather in Minamisōma

°F

Minamisōma temperature yesterday

Maximum temperature yesterday: 61 °F (at 1:00 PM)
Minimum temperature yesterday: 41 °F (at 6:00 AM)
Average temperature yesterday: 55 °F

Past Weeks' High & Low Weather Summary

 TemperatureHumidityPressure
High70 °F (Apr 16, 11:46 AM)100% (Apr 14, 6:00 AM)30.27 "Hg (Apr 14, 6:00 AM)
Low34 °F (Apr 14, 6:00 AM)13% (Apr 16, 1:00 PM)29.65 "Hg (Apr 10, 12:00 PM)
Average51 °F57%29.99 "Hg
* Reported Apr 9 6:00 PM — Apr 24 6:00 PM, Minamisōma, Weather by CustomWeather, © 2014

Note: Actual official high and low records may vary slightly from our data, if they occured in-between our weather recording intervals... More about our weather records

Advertising

Historic Weather Conditions — Data for Previous 24 hours

 ConditionsComfort  
Time TempWeatherWind HumidityBarometerVisibility
6:00 PM
Apr 24
59 °FPassing clouds.9 mph42%30.18 "HgN/A
5:00 PM59 °FPassing clouds.13 mph45%30.18 "HgN/A
4:00 PM59 °FPassing clouds.15 mph48%30.18 "HgN/A
3:00 PM61 °FPassing clouds.14 mph45%30.18 "HgN/A
2:00 PM63 °FPassing clouds.13 mph42%30.18 "HgN/A
1:00 PM63 °FPassing clouds.14 mph49%30.18 "HgN/A
12:00 PM61 °FPassing clouds.14 mph48%30.21 "HgN/A
11:00 AM61 °FPassing clouds.9 mph42%30.21 "HgN/A
10:00 AM55 °FPassing clouds.9 mph67%30.24 "HgN/A
9:00 AM57 °FPassing clouds.6 mph55%30.24 "HgN/A
8:00 AM52 °FPassing clouds.3 mph62%30.24 "HgN/A
7:00 AM46 °FSunny.1 mph87%30.21 "Hg10 mi
6:00 AM41 °FSunny.2 mph93%30.21 "Hg10 mi
9:00 PM
Apr 23
48 °FPassing clouds.5 mph87%30.07 "HgN/A
8:00 PM50 °FPassing clouds.10 mph88%30.07 "HgN/A
7:00 PM54 °FPassing clouds.1 mph63%30.04 "HgN/A
Weather by CustomWeather, © 2014

See weather overview